ITY718 LIRF-LIMC

Flight info

Callsign ITY718
Flight time 1h 46m
Altitude 34000
Route NEMBO DCT ELB DCT NORNI DCT UPDIN DCT SPEZI DCT IDONA DCT MEBUR
Aircraft A320/M-SDE3FGHIRWY/LB1

Departure

Time 2026-05-05 20:06
Airport Rome–Fiumicino Leonardo da Vinci International Airport (LIRF)

Arrival

Time 2026-05-05 21:52
Airport Milan Malpensa International Airport (LIMC)
Time Latitude Longitude Altitude Speed Heading
2026-05-05 19:33 41.79764 12.25662 14 ft 0 kts 295°
2026-05-05 19:51 41.79759 12.25679 15 ft 4 kts 295°
2026-05-05 19:51 41.79749 12.25705 15 ft 4 kts 309°
2026-05-05 19:52 41.79730 12.25720 15 ft 4 kts 10°
2026-05-05 19:52 41.79717 12.25715 15 ft 3 kts 25°
2026-05-05 19:52 41.79742 12.25731 14 ft 4 kts 25°
2026-05-05 19:52 41.79766 12.25746 15 ft 4 kts 25°
2026-05-05 19:53 41.79791 12.25761 15 ft 4 kts 25°
2026-05-05 19:53 41.79796 12.25764 14 ft 0 kts 25°
2026-05-05 19:57 41.79822 12.25781 14 ft 6 kts 25°
2026-05-05 19:57 41.79857 12.25811 16 ft 6 kts 35°
2026-05-05 19:57 41.79933 12.25860 14 ft 15 kts 24°
2026-05-05 19:57 41.80021 12.25915 14 ft 13 kts 24°
2026-05-05 19:58 41.80101 12.25963 14 ft 12 kts 25°
2026-05-05 19:58 41.80172 12.26008 16 ft 11 kts 25°
2026-05-05 19:58 41.80237 12.26048 14 ft 10 kts 25°
2026-05-05 19:58 41.80296 12.26084 14 ft 12 kts 25°
2026-05-05 19:59 41.80402 12.26151 15 ft 14 kts 23°
2026-05-05 19:59 41.80489 12.26179 16 ft 12 kts 12°
2026-05-05 19:59 41.80534 12.26254 16 ft 8 kts 68°
2026-05-05 19:59 41.80549 12.26311 18 ft 6 kts 72°
2026-05-05 20:00 41.80569 12.26385 16 ft 14 kts 70°
2026-05-05 20:00 41.80607 12.26524 17 ft 17 kts 70°
2026-05-05 20:00 41.80650 12.26682 15 ft 19 kts 70°
2026-05-05 20:00 41.80695 12.26842 16 ft 15 kts 69°
2026-05-05 20:01 41.80732 12.26980 13 ft 17 kts 69°
2026-05-05 20:01 41.80825 12.27034 15 ft 16 kts 340°
2026-05-05 20:01 41.80866 12.27014 13 ft 0 kts 340°
2026-05-05 20:04 41.80874 12.27010 13 ft 5 kts 340°
2026-05-05 20:05 41.80911 12.26992 13 ft 6 kts 342°
2026-05-05 20:05 41.80957 12.26931 12 ft 11 kts 266°
2026-05-05 20:05 41.80905 12.26736 15 ft 52 kts 249°
2026-05-05 20:05 41.80698 12.25987 18 ft 119 kts 250°
2026-05-05 20:06 41.80338 12.24695 40 ft 169 kts 249°
2026-05-05 20:06 41.79970 12.23217 636 ft 169 kts 248°
2026-05-05 20:06 41.79564 12.21734 1332 ft 170 kts 242°
2026-05-05 20:06 41.79256 12.20116 1772 ft 196 kts 264°
2026-05-05 20:07 41.79268 12.18154 2150 ft 222 kts 265°
2026-05-05 20:07 41.79231 12.15983 2630 ft 245 kts 264°
2026-05-05 20:07 41.79168 12.13646 3379 ft 255 kts 264°
2026-05-05 20:07 41.79093 12.11229 3909 ft 262 kts 264°
2026-05-05 20:08 41.79014 12.08799 4024 ft 260 kts 264°
2026-05-05 20:08 41.78967 12.06377 3981 ft 259 kts 266°
2026-05-05 20:08 41.78969 12.03953 4036 ft 262 kts 268°
2026-05-05 20:08 41.79001 12.01503 4904 ft 264 kts 265°
2026-05-05 20:09 41.79018 11.99044 5895 ft 265 kts 267°
2026-05-05 20:09 41.79020 11.96584 6765 ft 269 kts 267°
2026-05-05 20:09 41.79014 11.94063 7663 ft 272 kts 266°
2026-05-05 20:09 41.79005 11.91530 8615 ft 272 kts 266°
2026-05-05 20:10 41.78996 11.88976 9499 ft 276 kts 267°
2026-05-05 20:10 41.78987 11.86389 10292 ft 282 kts 268°
2026-05-05 20:10 41.78975 11.83646 10562 ft 306 kts 268°
2026-05-05 20:10 41.78962 11.80712 11025 ft 320 kts 268°
2026-05-05 20:11 41.78950 11.77693 11742 ft 325 kts 268°
2026-05-05 20:11 41.78936 11.74638 12507 ft 330 kts 268°
2026-05-05 20:11 41.78919 11.71549 13255 ft 334 kts 268°
2026-05-05 20:11 41.78901 11.68425 14026 ft 336 kts 268°
2026-05-05 20:12 41.78882 11.65275 14711 ft 339 kts 268°
2026-05-05 20:12 41.78866 11.62102 15401 ft 342 kts 268°
2026-05-05 20:12 41.78941 11.58896 16066 ft 347 kts 275°
2026-05-05 20:12 41.79504 11.55732 16723 ft 354 kts 287°
2026-05-05 20:13 41.80602 11.52753 17388 ft 361 kts 300°
2026-05-05 20:13 41.82166 11.50126 18027 ft 368 kts 307°
2026-05-05 20:13 41.83867 11.47544 18633 ft 371 kts 307°
2026-05-05 20:13 41.85588 11.44930 19184 ft 375 kts 307°
2026-05-05 20:14 41.87318 11.42297 19746 ft 378 kts 307°
2026-05-05 20:14 41.89064 11.39635 20311 ft 381 kts 307°
2026-05-05 20:14 41.90817 11.36954 20885 ft 384 kts 307°
2026-05-05 20:14 41.92582 11.34244 21450 ft 387 kts 307°
2026-05-05 20:15 41.94356 11.31512 22009 ft 390 kts 307°
2026-05-05 20:15 41.96150 11.28750 22558 ft 393 kts 307°
2026-05-05 20:15 41.97959 11.25971 23089 ft 397 kts 307°
2026-05-05 20:15 41.99784 11.23168 23604 ft 400 kts 307°
2026-05-05 20:16 42.01600 11.20378 24032 ft 402 kts 307°
2026-05-05 20:16 42.03452 11.17531 24484 ft 404 kts 307°
2026-05-05 20:16 42.05306 11.14676 24922 ft 406 kts 306°
2026-05-05 20:16 42.07164 11.11806 25362 ft 407 kts 306°
2026-05-05 20:17 42.09023 11.08926 25818 ft 408 kts 306°
2026-05-05 20:17 42.10888 11.06031 26251 ft 409 kts 306°
2026-05-05 20:17 42.12755 11.03133 26678 ft 410 kts 306°
2026-05-05 20:17 42.14629 11.00223 27089 ft 412 kts 305°
2026-05-05 20:18 42.16507 10.97303 27499 ft 413 kts 305°
2026-05-05 20:18 42.18394 10.94374 27902 ft 414 kts 305°
2026-05-05 20:18 42.20290 10.91433 28294 ft 416 kts 304°
2026-05-05 20:18 42.22187 10.88481 28685 ft 417 kts 304°
2026-05-05 20:19 42.24088 10.85515 29048 ft 418 kts 304°
2026-05-05 20:19 42.25994 10.82542 29407 ft 419 kts 304°
2026-05-05 20:19 42.27932 10.79572 29759 ft 423 kts 307°
2026-05-05 20:19 42.30120 10.76933 30073 ft 433 kts 315°
2026-05-05 20:20 42.32656 10.74647 30337 ft 439 kts 320°
2026-05-05 20:20 42.35245 10.72429 30592 ft 441 kts 320°
2026-05-05 20:20 42.37837 10.70194 30832 ft 442 kts 320°
2026-05-05 20:20 42.40435 10.67947 31068 ft 444 kts 320°
2026-05-05 20:21 42.43040 10.65693 31294 ft 446 kts 320°
2026-05-05 20:21 42.45654 10.63432 31598 ft 445 kts 320°
2026-05-05 20:21 42.48265 10.61175 31921 ft 444 kts 319°
2026-05-05 20:21 42.50864 10.58923 32238 ft 443 kts 319°
2026-05-05 20:22 42.53460 10.56666 32579 ft 443 kts 319°
2026-05-05 20:22 42.56055 10.54407 32877 ft 443 kts 319°
2026-05-05 20:22 42.58614 10.52179 33177 ft 443 kts 319°
2026-05-05 20:22 42.61205 10.49926 33488 ft 442 kts 319°
2026-05-05 20:23 42.63793 10.47674 33804 ft 442 kts 319°
2026-05-05 20:23 42.66378 10.45421 33956 ft 440 kts 319°
2026-05-05 20:23 42.68938 10.43196 33991 ft 435 kts 319°
2026-05-05 20:24 42.74023 10.38797 33986 ft 433 kts 320°
2026-05-05 20:24 42.79266 10.34712 33983 ft 434 kts 323°
2026-05-05 20:25 42.83695 10.31482 33982 ft 434 kts 323°
2026-05-05 20:25 42.89866 10.26940 33978 ft 433 kts 323°
2026-05-05 20:26 42.95136 10.22964 33977 ft 432 kts 322°
2026-05-05 20:26 42.99516 10.19638 34009 ft 433 kts 322°
2026-05-05 20:27 43.04780 10.15631 33979 ft 434 kts 322°
2026-05-05 20:27 43.10054 10.11604 33968 ft 434 kts 322°
2026-05-05 20:28 43.15342 10.07571 33962 ft 435 kts 322°
2026-05-05 20:28 43.20644 10.03525 33983 ft 436 kts 322°
2026-05-05 20:29 43.25939 9.99473 33961 ft 436 kts 322°
2026-05-05 20:29 43.31214 9.95431 33962 ft 437 kts 322°
2026-05-05 20:30 43.36536 9.91350 33958 ft 437 kts 322°
2026-05-05 20:30 43.41856 9.87257 33973 ft 438 kts 321°
2026-05-05 20:31 43.47170 9.83161 33997 ft 438 kts 321°
2026-05-05 20:31 43.52487 9.79045 33982 ft 438 kts 321°
2026-05-05 20:32 43.57801 9.74912 33974 ft 439 kts 321°
2026-05-05 20:32 43.63091 9.70800 34003 ft 439 kts 320°
2026-05-05 20:33 43.68403 9.66665 33986 ft 438 kts 320°
2026-05-05 20:33 43.73715 9.62522 33978 ft 438 kts 320°
2026-05-05 20:34 43.79020 9.58379 33973 ft 438 kts 320°
2026-05-05 20:34 43.84331 9.54226 33984 ft 438 kts 320°
2026-05-05 20:35 43.89641 9.50065 33972 ft 438 kts 320°
2026-05-05 20:35 43.94915 9.45922 33612 ft 432 kts 320°
2026-05-05 20:35 43.97552 9.43960 33265 ft 432 kts 325°
2026-05-05 20:36 44.00405 9.42480 33001 ft 444 kts 334°
2026-05-05 20:36 44.03425 9.41447 32763 ft 447 kts 337°
2026-05-05 20:36 44.06454 9.40451 32415 ft 447 kts 337°
2026-05-05 20:36 44.09474 9.39460 32000 ft 444 kts 337°
2026-05-05 20:37 44.12474 9.38476 31588 ft 441 kts 337°
2026-05-05 20:37 44.15451 9.37498 31183 ft 437 kts 337°
2026-05-05 20:37 44.18390 9.36524 30791 ft 431 kts 337°
2026-05-05 20:37 44.21261 9.35570 30402 ft 426 kts 337°
2026-05-05 20:38 44.24128 9.34617 30033 ft 421 kts 337°
2026-05-05 20:38 44.26962 9.33671 29581 ft 417 kts 337°
2026-05-05 20:38 44.29766 9.32733 29132 ft 413 kts 337°
2026-05-05 20:38 44.32555 9.31800 28682 ft 410 kts 337°
2026-05-05 20:39 44.35321 9.30872 28196 ft 408 kts 338°
2026-05-05 20:39 44.38071 9.29948 27714 ft 406 kts 338°
2026-05-05 20:39 44.40811 9.29030 27236 ft 403 kts 338°
2026-05-05 20:39 44.43546 9.28115 26776 ft 402 kts 338°
2026-05-05 20:40 44.46262 9.27205 26315 ft 400 kts 339°
2026-05-05 20:40 44.48963 9.26302 25863 ft 398 kts 339°
2026-05-05 20:40 44.51649 9.25401 25418 ft 395 kts 339°
2026-05-05 20:40 44.54282 9.24514 24988 ft 392 kts 339°
2026-05-05 20:41 44.56928 9.23622 24562 ft 390 kts 340°
2026-05-05 20:41 44.59564 9.22735 24137 ft 388 kts 340°
2026-05-05 20:41 44.62185 9.21852 23721 ft 386 kts 340°
2026-05-05 20:41 44.64787 9.20974 23266 ft 383 kts 340°
2026-05-05 20:42 44.67371 9.20097 22776 ft 381 kts 340°
2026-05-05 20:42 44.69949 9.19223 22291 ft 380 kts 340°
2026-05-05 20:42 44.72510 9.18338 21812 ft 378 kts 338°
2026-05-05 20:42 44.74876 9.16882 21345 ft 365 kts 320°
2026-05-05 20:43 44.76787 9.14663 20872 ft 350 kts 304°
2026-05-05 20:43 44.78227 9.11964 20456 ft 343 kts 299°
2026-05-05 20:43 44.79964 9.09603 20004 ft 358 kts 323°
2026-05-05 20:43 44.82338 9.08494 19561 ft 373 kts 351°
2026-05-05 20:44 44.84924 9.08928 19133 ft 381 kts 18°
2026-05-05 20:44 44.87176 9.10879 18702 ft 383 kts 45°
2026-05-05 20:44 44.88635 9.13959 18278 ft 377 kts 73°
2026-05-05 20:44 44.89112 9.17532 17780 ft 368 kts 92°
2026-05-05 20:45 44.88383 9.24498 16821 ft 352 kts 120°
2026-05-05 20:45 44.87098 9.27362 16358 ft 342 kts 135°
2026-05-05 20:45 44.85581 9.29936 15900 ft 340 kts 136°
2026-05-05 20:46 44.84039 9.32460 15452 ft 339 kts 136°
2026-05-05 20:46 44.82488 9.34959 15008 ft 338 kts 136°
2026-05-05 20:46 44.80936 9.37386 14573 ft 335 kts 141°
2026-05-05 20:46 44.79041 9.39209 14130 ft 325 kts 161°
2026-05-05 20:47 44.76901 9.40039 13703 ft 315 kts 179°
2026-05-05 20:47 44.74744 9.39888 13223 ft 308 kts 196°
2026-05-05 20:47 44.72776 9.38832 12975 ft 297 kts 212°
2026-05-05 20:47 44.71204 9.37107 12968 ft 279 kts 227°
2026-05-05 20:48 44.70091 9.34970 12978 ft 264 kts 242°
2026-05-05 20:48 44.69456 9.32606 12984 ft 257 kts 256°
2026-05-05 20:48 44.69286 9.30103 12979 ft 258 kts 269°
2026-05-05 20:48 44.69580 9.27634 12980 ft 262 kts 283°
2026-05-05 20:49 44.70346 9.25282 12975 ft 270 kts 297°
2026-05-05 20:49 44.71451 9.23136 12974 ft 272 kts 303°
2026-05-05 20:49 44.72653 9.21130 12974 ft 264 kts 306°
2026-05-05 20:49 44.73868 9.19207 12977 ft 262 kts 306°
2026-05-05 20:50 44.75082 9.17297 12974 ft 262 kts 306°
2026-05-05 20:50 44.76290 9.15383 12974 ft 261 kts 305°
2026-05-05 20:50 44.77511 9.13485 12976 ft 264 kts 312°
2026-05-05 20:50 44.79121 9.12181 12980 ft 275 kts 341°
2026-05-05 20:51 44.81049 9.12101 12975 ft 284 kts 11°
2026-05-05 20:51 44.82809 9.13374 12978 ft 290 kts 43°
2026-05-05 20:51 44.83906 9.15709 12963 ft 288 kts 75°
2026-05-05 20:51 44.84056 9.18478 12974 ft 282 kts 106°
2026-05-05 20:52 44.83271 9.20931 12978 ft 272 kts 134°
2026-05-05 20:52 44.82051 9.22975 12977 ft 272 kts 136°
2026-05-05 20:52 44.80806 9.24991 12978 ft 273 kts 137°
2026-05-05 20:52 44.79553 9.27011 12976 ft 274 kts 137°
2026-05-05 20:53 44.78293 9.29017 12974 ft 272 kts 141°
2026-05-05 20:53 44.76756 9.30426 12974 ft 259 kts 168°
2026-05-05 20:53 44.75024 9.30708 12975 ft 248 kts 192°
2026-05-05 20:53 44.73423 9.29940 12978 ft 242 kts 215°
2026-05-05 20:54 44.72231 9.28350 12974 ft 240 kts 237°
2026-05-05 20:54 44.71600 9.26188 12967 ft 242 kts 259°
2026-05-05 20:54 44.71672 9.23805 12974 ft 249 kts 282°
2026-05-05 20:54 44.72485 9.21610 12982 ft 260 kts 303°
2026-05-05 20:55 44.73639 9.19640 12979 ft 261 kts 305°
2026-05-05 20:55 44.74832 9.17711 12976 ft 262 kts 306°
2026-05-05 20:55 44.76037 9.15790 12975 ft 262 kts 306°
2026-05-05 20:55 44.77243 9.13873 12977 ft 262 kts 308°
2026-05-05 20:56 44.78746 9.12379 12980 ft 273 kts 335°
2026-05-05 20:56 44.80643 9.12007 12975 ft 283 kts
2026-05-05 20:56 44.82485 9.13000 12978 ft 290 kts 36°
2026-05-05 20:56 44.83758 9.15167 12976 ft 288 kts 69°
2026-05-05 20:57 44.84109 9.17902 12969 ft 284 kts 100°
2026-05-05 20:57 44.83513 9.20448 12974 ft 274 kts 129°
2026-05-05 20:57 44.82327 9.22536 12973 ft 272 kts 136°
2026-05-05 20:57 44.81086 9.24554 12970 ft 273 kts 137°
2026-05-05 20:58 44.79835 9.26567 12976 ft 273 kts 137°
2026-05-05 20:58 44.78583 9.28581 12979 ft 273 kts 137°
2026-05-05 20:58 44.77141 9.30210 12975 ft 261 kts 162°
2026-05-05 20:58 44.75422 9.30751 12977 ft 250 kts 187°
2026-05-05 20:59 44.73765 9.30213 12988 ft 243 kts 210°
2026-05-05 20:59 44.72451 9.28778 12977 ft 240 kts 232°
2026-05-05 20:59 44.71677 9.26710 12975 ft 241 kts 254°
2026-05-05 20:59 44.71587 9.24341 12974 ft 248 kts 277°
2026-05-05 21:00 44.72231 9.22104 12971 ft 258 kts 300°
2026-05-05 21:00 44.73362 9.20114 12979 ft 261 kts 304°
2026-05-05 21:00 44.74552 9.18174 12979 ft 261 kts 306°
2026-05-05 21:00 44.75759 9.16244 12981 ft 262 kts 306°
2026-05-05 21:01 44.76961 9.14318 12982 ft 262 kts 305°
2026-05-05 21:01 44.78349 9.12636 12983 ft 270 kts 328°
2026-05-05 21:01 44.80189 9.11978 12977 ft 281 kts 358°
2026-05-05 21:01 44.82093 9.12659 12980 ft 288 kts 28°
2026-05-05 21:02 44.83544 9.14590 12979 ft 289 kts 61°
2026-05-05 21:02 44.84128 9.17223 12971 ft 286 kts 92°
2026-05-05 21:02 44.83741 9.19905 12978 ft 277 kts 122°
2026-05-05 21:02 44.82626 9.22062 12977 ft 273 kts 136°
2026-05-05 21:03 44.81387 9.24092 12971 ft 273 kts 137°
2026-05-05 21:03 44.80137 9.26109 12975 ft 273 kts 137°
2026-05-05 21:03 44.78885 9.28129 12978 ft 273 kts 137°
2026-05-05 21:03 44.77523 9.29941 12971 ft 265 kts 155°
2026-05-05 21:04 44.75838 9.30747 12978 ft 252 kts 181°
2026-05-05 21:04 44.74139 9.30448 12986 ft 244 kts 205°
2026-05-05 21:04 44.72721 9.29196 12980 ft 240 kts 227°
2026-05-05 21:04 44.71806 9.27254 12979 ft 241 kts 249°
2026-05-05 21:05 44.71541 9.24955 12977 ft 246 kts 270°
2026-05-05 21:05 44.72001 9.22618 12970 ft 254 kts 294°
2026-05-05 21:05 44.73153 9.20666 12984 ft 263 kts 309°
2026-05-05 21:05 44.74451 9.18846 12976 ft 263 kts 310°
2026-05-05 21:06 44.75761 9.17043 12976 ft 264 kts 310°
2026-05-05 21:06 44.77076 9.15239 12973 ft 263 kts 309°
2026-05-05 21:06 44.78387 9.13433 12990 ft 264 kts 311°
2026-05-05 21:06 44.79703 9.11609 12984 ft 270 kts 310°
2026-05-05 21:07 44.81051 9.09731 12978 ft 274 kts 310°
2026-05-05 21:07 44.82414 9.07834 12979 ft 275 kts 310°
2026-05-05 21:07 44.83762 9.05961 12982 ft 276 kts 310°
2026-05-05 21:07 44.85131 9.04052 12981 ft 277 kts 310°
2026-05-05 21:08 44.86500 9.02141 12980 ft 277 kts 310°
2026-05-05 21:08 44.87862 9.00232 12983 ft 276 kts 310°
2026-05-05 21:08 44.89231 8.98315 12983 ft 276 kts 310°
2026-05-05 21:08 44.90596 8.96405 12983 ft 277 kts 310°
2026-05-05 21:09 44.91964 8.94491 12980 ft 277 kts 310°
2026-05-05 21:09 44.93331 8.92579 12980 ft 277 kts 310°
2026-05-05 21:09 44.94700 8.90662 12980 ft 277 kts 310°
2026-05-05 21:09 44.96065 8.88747 12980 ft 277 kts 310°
2026-05-05 21:10 44.97414 8.86854 12979 ft 277 kts 310°
2026-05-05 21:10 44.98778 8.84940 12980 ft 277 kts 310°
2026-05-05 21:10 45.00144 8.83023 12975 ft 277 kts 310°
2026-05-05 21:10 45.01512 8.81099 12872 ft 280 kts 311°
2026-05-05 21:11 45.02894 8.79149 12500 ft 280 kts 311°
2026-05-05 21:11 45.04276 8.77199 12152 ft 280 kts 311°
2026-05-05 21:11 45.05658 8.75249 11788 ft 280 kts 311°
2026-05-05 21:11 45.07038 8.73302 11435 ft 280 kts 311°
2026-05-05 21:12 45.08417 8.71358 11092 ft 280 kts 312°
2026-05-05 21:12 45.09791 8.69415 10748 ft 279 kts 312°
2026-05-05 21:12 45.11160 8.67474 10402 ft 278 kts 312°
2026-05-05 21:12 45.12524 8.65541 10074 ft 277 kts 312°
2026-05-05 21:13 45.13420 8.64273 9977 ft 272 kts 312°
2026-05-05 21:13 45.14755 8.62385 9976 ft 270 kts 312°
2026-05-05 21:13 45.16510 8.59894 9995 ft 266 kts 312°
2026-05-05 21:13 45.17800 8.58064 9996 ft 260 kts 312°
2026-05-05 21:14 45.19073 8.56257 9997 ft 259 kts 312°
2026-05-05 21:14 45.19935 8.55035 9998 ft 259 kts 312°
2026-05-05 21:14 45.21209 8.53231 9998 ft 259 kts 313°
2026-05-05 21:14 45.22706 8.51817 9999 ft 263 kts 340°
2026-05-05 21:15 45.24503 8.51558 10001 ft 267 kts
2026-05-05 21:15 45.26232 8.52483 9999 ft 268 kts 35°
2026-05-05 21:15 45.27503 8.54388 10003 ft 267 kts 62°
2026-05-05 21:15 45.28067 8.56861 10004 ft 263 kts 89°
2026-05-05 21:16 45.27834 8.59398 10006 ft 258 kts 114°
2026-05-05 21:16 45.26900 8.61519 10001 ft 253 kts 139°
2026-05-05 21:16 45.25461 8.62904 9756 ft 249 kts 162°
2026-05-05 21:16 45.23798 8.63514 9446 ft 245 kts 170°
2026-05-05 21:17 45.22152 8.63955 9134 ft 244 kts 172°
2026-05-05 21:17 45.20469 8.64364 8986 ft 242 kts 172°
2026-05-05 21:17 45.18807 8.64763 8989 ft 243 kts 172°
2026-05-05 21:17 45.17142 8.65170 8976 ft 243 kts 172°
2026-05-05 21:18 45.15474 8.65569 8978 ft 243 kts 175°
2026-05-05 21:18 45.13834 8.65355 8977 ft 240 kts 199°
2026-05-05 21:18 45.12399 8.64185 8979 ft 240 kts 223°
2026-05-05 21:18 45.11441 8.62257 8980 ft 242 kts 247°
2026-05-05 21:19 45.11149 8.59909 8979 ft 246 kts 271°
2026-05-05 21:19 45.11604 8.57572 8972 ft 251 kts 297°
2026-05-05 21:19 45.12771 8.55722 8977 ft 256 kts 324°
2026-05-05 21:19 45.14424 8.54771 8999 ft 260 kts 346°
2026-05-05 21:20 45.16205 8.54263 8995 ft 261 kts 348°
2026-05-05 21:20 45.17996 8.53809 8991 ft 261 kts 348°
2026-05-05 21:20 45.19788 8.53369 8999 ft 261 kts 348°
2026-05-05 21:20 45.21579 8.52947 8999 ft 262 kts 353°
2026-05-05 21:21 45.23392 8.53203 8730 ft 266 kts 21°
2026-05-05 21:21 45.24914 8.54635 8343 ft 263 kts 50°
2026-05-05 21:21 45.25787 8.56828 8032 ft 256 kts 77°
2026-05-05 21:21 45.25897 8.59283 8004 ft 249 kts 102°
2026-05-05 21:22 45.25284 8.61544 8003 ft 245 kts 128°
2026-05-05 21:22 45.24072 8.63192 7998 ft 241 kts 152°
2026-05-05 21:22 45.22509 8.63999 8003 ft 239 kts 169°
2026-05-05 21:22 45.20873 8.64476 7998 ft 240 kts 171°
2026-05-05 21:23 45.19229 8.64889 8000 ft 240 kts 172°
2026-05-05 21:23 45.17587 8.65290 7983 ft 240 kts 172°
2026-05-05 21:23 45.15942 8.65693 7981 ft 240 kts 172°
2026-05-05 21:23 45.14290 8.65760 7974 ft 238 kts 191°
2026-05-05 21:24 45.12762 8.64905 7973 ft 237 kts 214°
2026-05-05 21:24 45.11627 8.63270 7974 ft 239 kts 237°
2026-05-05 21:24 45.11051 8.61070 7977 ft 241 kts 261°
2026-05-05 21:24 45.11178 8.58701 7977 ft 246 kts 285°
2026-05-05 21:25 45.12016 8.56584 7977 ft 250 kts 311°
2026-05-05 21:25 45.13436 8.55157 7983 ft 254 kts 337°
2026-05-05 21:25 45.15152 8.54531 7995 ft 256 kts 347°
2026-05-05 21:25 45.16909 8.54064 7996 ft 257 kts 348°
2026-05-05 21:26 45.18670 8.53630 7995 ft 257 kts 349°
2026-05-05 21:26 45.20436 8.53200 7995 ft 257 kts 349°
2026-05-05 21:26 45.22209 8.52905 7990 ft 258 kts
2026-05-05 21:26 45.23916 8.53613 7999 ft 258 kts 32°
2026-05-05 21:27 45.25196 8.55348 8002 ft 256 kts 60°
2026-05-05 21:27 45.25776 8.57695 8000 ft 252 kts 88°
2026-05-05 21:27 45.25569 8.60096 8000 ft 248 kts 114°
2026-05-05 21:27 45.24646 8.62114 7998 ft 243 kts 140°
2026-05-05 21:28 45.23223 8.63341 8000 ft 240 kts 165°
2026-05-05 21:28 45.21598 8.63882 8001 ft 240 kts 171°
2026-05-05 21:28 45.19956 8.64314 7998 ft 240 kts 171°
2026-05-05 21:28 45.18307 8.64720 7996 ft 244 kts 172°
2026-05-05 21:29 45.16531 8.65150 7801 ft 269 kts 171°
2026-05-05 21:29 45.14669 8.65402 7446 ft 268 kts 187°
2026-05-05 21:29 45.12937 8.64531 7099 ft 266 kts 214°
2026-05-05 21:29 45.11702 8.62607 6757 ft 267 kts 242°
2026-05-05 21:30 45.11252 8.60075 6415 ft 269 kts 270°
2026-05-05 21:30 45.11713 8.57524 6065 ft 272 kts 298°
2026-05-05 21:30 45.12977 8.55540 5975 ft 275 kts 324°
2026-05-05 21:30 45.14711 8.54454 6001 ft 279 kts 347°
2026-05-05 21:31 45.16628 8.53943 6002 ft 281 kts 349°
2026-05-05 21:31 45.18555 8.53453 6003 ft 281 kts 349°
2026-05-05 21:31 45.20478 8.52966 6004 ft 281 kts 349°
2026-05-05 21:31 45.22399 8.52477 6005 ft 281 kts 349°
2026-05-05 21:32 45.24321 8.51992 6007 ft 281 kts 349°
2026-05-05 21:32 45.26244 8.51506 6009 ft 280 kts 349°
2026-05-05 21:32 45.28136 8.51025 6005 ft 268 kts 349°
2026-05-05 21:32 45.29923 8.50700 6001 ft 251 kts
2026-05-05 21:33 45.31583 8.51310 6007 ft 247 kts 29°
2026-05-05 21:33 45.32873 8.52877 6007 ft 244 kts 56°
2026-05-05 21:33 45.33543 8.55034 6007 ft 242 kts 80°
2026-05-05 21:33 45.33857 8.57303 6004 ft 226 kts 81°
2026-05-05 21:34 45.34154 8.59483 6007 ft 223 kts 81°
2026-05-05 21:34 45.34447 8.61652 6008 ft 223 kts 82°
2026-05-05 21:34 45.34405 8.63815 6008 ft 218 kts 110°
2026-05-05 21:34 45.33662 8.65649 6009 ft 214 kts 138°
2026-05-05 21:35 45.32416 8.66751 6009 ft 211 kts 165°
2026-05-05 21:35 45.30976 8.67171 6011 ft 212 kts 171°
2026-05-05 21:35 45.29525 8.67562 6009 ft 212 kts 170°
2026-05-05 21:35 45.28078 8.67960 6009 ft 212 kts 170°
2026-05-05 21:36 45.26631 8.68362 6009 ft 212 kts 170°
2026-05-05 21:36 45.25181 8.68765 6008 ft 212 kts 170°
2026-05-05 21:36 45.23733 8.69163 6006 ft 212 kts 170°
2026-05-05 21:36 45.22302 8.69554 6006 ft 212 kts 170°
2026-05-05 21:37 45.20853 8.69953 6007 ft 212 kts 170°
2026-05-05 21:37 45.19404 8.70352 5985 ft 212 kts 170°
2026-05-05 21:37 45.17954 8.70748 5984 ft 212 kts 170°
2026-05-05 21:37 45.16507 8.71143 5983 ft 212 kts 170°
2026-05-05 21:38 45.15059 8.71541 5983 ft 212 kts 170°
2026-05-05 21:38 45.13609 8.71943 5982 ft 212 kts 170°
2026-05-05 21:38 45.12157 8.72345 5982 ft 212 kts 170°
2026-05-05 21:38 45.10704 8.72745 5981 ft 212 kts 170°
2026-05-05 21:39 45.09255 8.73143 5982 ft 212 kts 170°
2026-05-05 21:39 45.07823 8.73534 5982 ft 212 kts 170°
2026-05-05 21:39 45.06372 8.73929 5982 ft 212 kts 170°
2026-05-05 21:39 45.04924 8.74323 5981 ft 212 kts 169°
2026-05-05 21:40 45.03596 8.75208 5981 ft 215 kts 138°
2026-05-05 21:40 45.02819 8.77006 5981 ft 219 kts 104°
2026-05-05 21:40 45.02847 8.79173 5871 ft 227 kts 81°
2026-05-05 21:40 45.03146 8.81429 5269 ft 239 kts 80°
2026-05-05 21:41 45.03468 8.83717 5041 ft 232 kts 81°
2026-05-05 21:41 45.03860 8.85877 4984 ft 227 kts 66°
2026-05-05 21:41 45.04860 8.87544 4933 ft 228 kts 32°
2026-05-05 21:41 45.06347 8.88226 4883 ft 226 kts 358°
2026-05-05 21:42 45.07896 8.87916 4838 ft 226 kts 347°
2026-05-05 21:42 45.09443 8.87490 4785 ft 226 kts 347°
2026-05-05 21:42 45.10989 8.87068 4730 ft 226 kts 347°
2026-05-05 21:42 45.12533 8.86647 4683 ft 226 kts 347°
2026-05-05 21:43 45.14077 8.86228 4636 ft 226 kts 348°
2026-05-05 21:43 45.15611 8.85813 4581 ft 223 kts 348°
2026-05-05 21:43 45.17134 8.85400 4537 ft 223 kts 348°
2026-05-05 21:43 45.18653 8.84988 4483 ft 222 kts 348°
2026-05-05 21:44 45.20174 8.84574 4435 ft 222 kts 348°
2026-05-05 21:44 45.21693 8.84158 4384 ft 222 kts 348°
2026-05-05 21:44 45.23210 8.83742 4337 ft 222 kts 348°
2026-05-05 21:44 45.24726 8.83329 4304 ft 221 kts 348°
2026-05-05 21:45 45.26233 8.82919 4255 ft 220 kts 348°
2026-05-05 21:45 45.27719 8.82514 4210 ft 220 kts 349°
2026-05-05 21:45 45.29225 8.82126 4113 ft 220 kts 355°
2026-05-05 21:45 45.30753 8.82057 4015 ft 219 kts 355°
2026-05-05 21:46 45.32262 8.81781 4005 ft 219 kts 350°
2026-05-05 21:46 45.33763 8.81389 4007 ft 219 kts 349°
2026-05-05 21:46 45.35216 8.80990 4001 ft 204 kts 348°
2026-05-05 21:46 45.36560 8.80622 4003 ft 191 kts 348°
2026-05-05 21:47 45.37854 8.80268 4005 ft 188 kts 349°
2026-05-05 21:47 45.39120 8.79921 4053 ft 188 kts 349°
2026-05-05 21:47 45.40399 8.79571 4020 ft 187 kts 349°
2026-05-05 21:47 45.41673 8.79222 4005 ft 186 kts 349°
2026-05-05 21:48 45.42951 8.78872 4001 ft 187 kts 349°
2026-05-05 21:48 45.44226 8.78522 4000 ft 187 kts 349°
2026-05-05 21:48 45.45502 8.78172 3895 ft 187 kts 349°
2026-05-05 21:48 45.46778 8.77822 3684 ft 186 kts 349°
2026-05-05 21:49 45.48046 8.77474 3452 ft 185 kts 349°
2026-05-05 21:49 45.49311 8.77127 3210 ft 184 kts 349°
2026-05-05 21:49 45.50568 8.76781 2961 ft 183 kts 350°
2026-05-05 21:49 45.51788 8.76446 2716 ft 173 kts 350°
2026-05-05 21:50 45.52931 8.76131 2490 ft 162 kts 350°
2026-05-05 21:50 45.53995 8.75838 2295 ft 151 kts 351°
2026-05-05 21:50 45.55009 8.75559 2090 ft 147 kts 351°
2026-05-05 21:50 45.56006 8.75285 1891 ft 144 kts 351°
2026-05-05 21:51 45.56977 8.75018 1694 ft 143 kts 351°
2026-05-05 21:51 45.57947 8.74751 1498 ft 141 kts 350°
2026-05-05 21:51 45.58896 8.74489 1302 ft 137 kts 350°
2026-05-05 21:51 45.59823 8.74215 1082 ft 134 kts 349°
2026-05-05 21:52 45.61650 8.73720 783 ft 132 kts 349°
2026-05-05 21:52 45.62505 8.73491 741 ft 106 kts 349°
2026-05-05 21:52 45.62952 8.73365 738 ft 40 kts 349°
2026-05-05 21:53 45.63152 8.73234 739 ft 22 kts 322°
2026-05-05 21:53 45.63230 8.73124 740 ft 16 kts 310°
2026-05-05 21:53 45.63276 8.73032 741 ft 11 kts 304°
2026-05-05 21:53 45.63308 8.72968 741 ft 6 kts 305°
2026-05-05 21:54 45.63330 8.72921 740 ft 5 kts 304°
2026-05-05 21:54 45.63349 8.72882 741 ft 4 kts 303°
2026-05-05 21:54 45.63367 8.72842 739 ft 9 kts 303°
2026-05-05 21:54 45.63399 8.72757 741 ft 9 kts 288°
2026-05-05 21:55 45.63408 8.72673 741 ft 8 kts 271°
2026-05-05 21:55 45.63401 8.72600 739 ft 8 kts 258°
2026-05-05 21:55 45.63383 8.72468 741 ft 18 kts 259°
2026-05-05 21:55 45.63359 8.72291 740 ft 14 kts 259°
2026-05-05 21:56 45.63340 8.72151 742 ft 14 kts 259°
2026-05-05 21:56 45.63321 8.72011 741 ft 15 kts 259°
2026-05-05 21:56 45.63306 8.71902 741 ft 7 kts 258°
2026-05-05 21:56 45.63297 8.71837 741 ft 6 kts 259°
2026-05-05 21:57 45.63292 8.71798 741 ft 3 kts 261°
2026-05-05 21:57 45.63289 8.71767 741 ft 4 kts 263°
2026-05-05 21:57 45.63247 8.71648 741 ft 19 kts 209°
2026-05-05 21:57 45.63128 8.71695 741 ft 19 kts 161°
2026-05-05 21:58 45.63013 8.71732 741 ft 0 kts 168°